Flag Weather past 2 weeks in Istanbul, Turkey

Now
41 °F

Broken clouds.


Feels Like: 33 °F
Forecast: 46 / 52 °F
Wind: 16 mph from Northeast

Location: Istanbul Ataturk Airport

Current Time: Nov 27, 2014 at 7:59:29 AM

Latest Report: Nov 27, 2014 at 7:20 AM


Visibility: N/A

Pressure: 30.24 "Hg

Humidity: 81%

Dew point: 36 °F

Location of IstanbulLocation

Historic Weather in Istanbul — Graph

°F

Istanbul temperature yesterday

Maximum temperature yesterday: 46 °F (at 10:50 AM)
Minimum temperature yesterday: 43 °F (at 4:20 AM)
Average temperature yesterday: 44 °F

Past Weeks' High & Low Weather Summary

 TemperatureHumidityPressure
High70 °F (Nov 19, 2:50 PM)94% (Nov 14, 3:50 AM)30.33 "Hg (Nov 14, 3:50 AM)
Low43 °F (Nov 22, 4:50 AM)53% (Nov 19, 2:50 PM)29.89 "Hg (Nov 13, 10:20 PM)
Average54 °F78%30.09 "Hg
* Reported Nov 12 6:20 AM — Nov 27 6:50 AM, Istanbul, Weather by CustomWeather, © 2014

Note: Actual official high and low records may vary slightly from our data, if they occured in-between our weather recording intervals... More about our weather records

Advertising

Istanbul weather history for previous 24 hours

 ConditionsComfort  
Time TempWeatherWind HumidityBarometerVisibility
6:50 AM
Nov 27
43 °FPassing clouds.14 mph81%30.24 "HgN/A
6:20 AM43 °FPassing clouds.15 mph81%30.24 "HgN/A
5:50 AM43 °FPassing clouds.13 mph81%30.24 "HgN/A
5:20 AM43 °FPassing clouds.14 mph81%30.21 "HgN/A
4:50 AM43 °FPassing clouds.13 mph81%30.21 "HgN/A
4:20 AM43 °FPassing clouds.12 mph81%30.21 "HgN/A
3:50 AM43 °FPassing clouds.12 mph81%30.21 "HgN/A
3:20 AM43 °FPassing clouds.12 mph81%30.21 "HgN/A
2:50 AM43 °FPassing clouds.14 mph81%30.21 "HgN/A
2:20 AM43 °FPassing clouds.13 mph81%30.24 "HgN/A
1:20 AM43 °FPassing clouds.13 mph81%30.21 "HgN/A
12:50 AM45 °FPassing clouds.9 mph71%30.21 "HgN/A
12:20 AM45 °FPassing clouds.9 mph71%30.24 "HgN/A
11:50 PM
Nov 26
45 °FPassing clouds.12 mph76%30.24 "HgN/A
11:20 PM45 °FPassing clouds.10 mph76%30.24 "HgN/A
10:50 PM45 °FPassing clouds.14 mph76%30.24 "HgN/A
10:20 PM45 °FPassing clouds.14 mph76%30.24 "HgN/A
9:50 PM45 °FPassing clouds.12 mph76%30.24 "HgN/A
9:20 PM45 °FPassing clouds.14 mph76%30.24 "HgN/A
8:50 PM45 °FPartly cloudy.15 mph76%30.21 "HgN/A
8:20 PM45 °FPartly cloudy.14 mph76%30.21 "HgN/A
7:50 PM43 °FPartly cloudy.16 mph87%30.21 "HgN/A
7:20 PM45 °FPartly cloudy.14 mph81%30.21 "HgN/A
6:50 PM43 °FPartly cloudy.18 mph81%30.21 "HgN/A
6:20 PM43 °FSprinkles. Partly cloudy.15 mph87%30.21 "HgN/A
5:50 PM43 °FSprinkles. Partly cloudy.16 mph87%30.21 "HgN/A
5:20 PM43 °FSprinkles. Partly cloudy.20 mph81%30.21 "HgN/A
4:50 PM43 °FSprinkles. Partly cloudy.21 mph81%30.21 "HgN/A
4:20 PM43 °FSprinkles. Broken clouds.23 mph81%30.18 "HgN/A
3:50 PM43 °FBroken clouds.24 mph81%30.18 "HgN/A
3:20 PM43 °FBroken clouds.24 mph81%30.18 "HgN/A
2:50 PM45 °FBroken clouds.24 mph71%30.18 "HgN/A
2:20 PM45 °FBroken clouds.23 mph71%30.18 "HgN/A
1:50 PM45 °FBroken clouds.23 mph71%30.18 "HgN/A
1:20 PM45 °FBroken clouds.24 mph76%30.18 "HgN/A
12:50 PM46 °FPartly sunny.26 mph71%30.18 "HgN/A
12:20 PM46 °FPartly sunny.22 mph71%30.18 "HgN/A
11:50 AM46 °FPartly sunny.21 mph71%30.18 "HgN/A
11:20 AM45 °FBroken clouds.21 mph76%30.18 "HgN/A
10:50 AM46 °FBroken clouds.22 mph76%30.18 "HgN/A
10:20 AM45 °FSprinkles. Broken clouds.23 mph76%30.18 "HgN/A
9:50 AM45 °FSprinkles. Broken clouds.20 mph81%30.18 "HgN/A
9:20 AM45 °FSprinkles. Broken clouds.16 mph81%30.18 "Hg4 mi
8:50 AM43 °FSprinkles. Broken clouds.17 mph87%30.18 "Hg4 mi
8:20 AM43 °FSprinkles. Broken clouds.18 mph81%30.18 "Hg4 mi
7:50 AM43 °FSprinkles. Broken clouds.16 mph87%30.18 "Hg4 mi
7:20 AM43 °FSprinkles. Partly sunny.16 mph87%30.15 "HgN/A
Weather by CustomWeather, © 2014

See weather overviewHow to use our weather pages